Wind_Speed
7 6 5 1 3 5 4 2 2 4 3 3 3 3 5 5 5 7 8 8 5 3 7 6 6 7 7 9 10 16 16 13 16 16 15 15 12 9 6 3 2 1 4 6 9 12 16 20 27 34 38 39 44 44 38 33 33 34 36 36 35 33 33 33 33 34 34 33 33 34 35 34 34 33 31 30 28 27 27 26 25 27 30 31 32 31
8 7 2 4 5 4 5 4 3 5 3 2 3 4 6 4 6 10 8 7 5 4 8 9 7 10 8 8 10 15 12 10 15 15 14 13 10 7 5 1 1 2 5 8 12 15 21 27 33 37 37 40 43 40 36 34 35 35 34 32 33 33 33 32 33 33 34 33 31 33 33 31 30 29 26 27 27 27 27 27 26 27 29 31 33 33
7 4 5 6 3 4 4 3 4 4 3 3 1 2 4 4 6 10 7 4 5 3 7 10 7 9 9 6 9 13 10 8 14 15 13 12 9 6 2 2 2 4 8 12 17 21 26 32 35 36 38 41 41 38 36 36 36 36 34 33 34 34 34 34 34 34 34 34 31 31 30 29 29 29 29 31 31 30 29 30 30 30 30 31 33 35
5 2 6 5 4 4 4 5 7 6 5 3 2 2 4 5 5 6 6 5 6 4 8 10 7 7 5 2 5 9 11 10 11 13 10 8 6 2 1 2 3 8 13 16 20 25 30 33 34 37 40 43 41 37 37 38 37 36 35 35 35 35 37 36 35 36 36 35 33 32 32 33 34 35 35 36 36 34 34 33 33 32 32 32 32 34
2 5 5 6 4 1 2 6 7 6 6 3 1 1 4 7 6 8 8 8 8 5 5 5 6 5 2 4 3 3 8 11 11 11 8 5 4 2 2 4 5 10 15 18 22 27 30 33 36 39 41 40 38 37 38 37 34 34 35 35 36 37 38 37 37 38 37 35 36 35 35 36 37 37 38 38 39 38 35 34 33 33 32 32 33 34
0 4 4 6 5 5 4 3 3 3 4 6 3 4 5 8 9 12 10 8 7 5 2 4 4 5 3 2 5 3 4 7 8 8 8 8 6 3 4 5 7 12 16 19 23 28 31 35 38 38 38 37 38 38 36 32 32 35 36 36 36 38 38 38 39 40 37 35 36 36 36 36 36 37 38 37 37 36 35 34 34 33 31 32 33 33
2 5 5 4 4 7 6 2 1 3 4 4 5 4 5 7 10 15 12 6 2 4 4 3 0 5 5 3 5 5 4 4 5 6 8 8 6 5 5 6 9 13 17 21 26 31 34 34 34 35 38 40 40 37 32 32 35 37 36 36 37 38 39 39 40 39 34 32 33 34 35 35 37 38 40 40 38 37 37 37 36 35 34 34 34 32
2 6 7 6 5 6 4 3 3 5 5 4 6 2 6 9 11 15 11 4 3 4 5 2 1 4 4 4 3 5 6 4 4 5 4 5 6 5 5 8 12 16 21 26 30 31 29 29 32 38 41 41 39 36 33 35 39 38 36 37 38 39 39 39 38 36 33 32 35 36 37 38 38 39 41 42 41 39 39 39 38 38 38 37 36 34
1 2 2 4 5 4 2 4 5 4 3 7 7 3 6 8 12 13 8 5 4 1 5 5 2 2 5 3 1 4 5 3 4 4 3 4 4 6 8 9 15 20 24 26 25 24 25 30 37 40 40 40 40 38 37 38 39 37 36 37 37 37 38 38 38 35 35 37 37 36 36 36 37 38 40 41 39 38 38 38 39 39 39 38 36 33
1 1 3 3 3 2 4 7 5 5 3 7 6 5 7 7 10 9 5 4 1 1 5 4 3 1 5 4 1 2 2 3 3 3 3 1 5 9 9 11 17 22 22 22 21 25 31 36 40 40 40 42 42 40 39 38 37 38 37 35 35 36 38 39 38 37 39 38 36 34 34 35 38 41 43 43 41 39 38 38 39 39 39 37 34 32
2 1 2 2 2 3 5 8 6 7 6 6 6 6 7 6 6 4 1 1 2 1 5 5 0 2 4 4 2 2 2 5 4 2 2 2 5 7 10 14 17 19 20 23 27 34 38 40 40 41 43 44 43 40 37 36 38 38 36 34 35 38 40 39 38 39 39 37 35 35 35 37 40 42 44 44 43 42 41 40 38 37 36 35 34 34
5 2 1 2 3 2 3 5 5 1 1 3 4 4 6 6 4 4 4 3 2 5 6 4 3 4 3 5 3 4 4 5 5 3 4 2 3 8 12 14 16 19 24 31 35 39 40 40 40 41 44 45 42 38 35 36 38 38 36 37 39 41 40 39 39 39 38 36 36 36 36 39 42 46 47 46 44 42 41 41 39 38 36 34 33 33
4 2 3 3 3 2 2 3 5 5 6 5 4 5 6 5 5 5 5 4 2 6 5 2 8 5 5 5 4 5 5 6 8 8 4 2 7 12 13 14 19 26 33 38 38 38 37 37 39 41 44 44 40 36 35 38 39 39 40 41 41 42 41 40 40 39 38 38 37 36 37 42 47 51 51 48 45 41 39 39 39 39 39 38 35 33
4 5 4 3 2 1 2 2 4 4 4 4 2 3 3 3 5 6 4 4 6 7 3 4 5 5 5 3 5 6 8 11 11 7 5 10 10 11 15 19 28 35 38 39 37 36 36 37 40 42 44 42 38 35 37 40 42 42 43 43 42 42 42 41 41 40 39 38 36 37 40 46 51 53 50 45 41 38 37 38 38 38 39 39 38 35
2 5 4 1 2 3 2 1 3 2 2 3 2 5 3 2 1 4 3 3 7 10 7 3 1 4 3 2 6 7 8 7 4 2 6 15 17 19 24 28 35 38 38 37 36 35 36 38 41 44 44 40 36 37 40 44 45 45 45 44 43 43 42 42 41 41 39 38 38 41 45 51 54 50 44 39 36 33 34 35 35 37 37 37 37 36
0 5 6 3 2 1 1 2 3 3 1 4 2 4 1 3 4 3 4 5 6 9 8 3 3 4 3 3 3 3 5 6 7 9 15 23 26 28 29 32 36 36 36 37 35 35 36 40 43 44 42 37 37 40 44 47 47 46 45 44 43 42 42 42 42 42 41 40 42 45 49 53 51 43 36 34 32 32 33 33 32 33 33 33 33 35
1 5 7 5 4 2 1 2 1 2 1 2 2 1 4 4 6 2 4 4 3 6 6 2 3 3 4 4 2 5 5 7 10 16 22 26 27 28 29 32 35 34 35 36 35 35 37 42 45 42 38 37 39 43 45 47 47 46 44 42 42 43 44 44 43 43 42 42 45 47 50 52 46 36 32 31 32 33 34 32 30 29 28 28 29 32
1 5 7 4 4 3 0 1 4 2 2 1 1 4 2 2 4 2 2 4 4 6 5 2 4 3 3 3 3 6 7 9 11 15 20 23 26 28 30 33 34 34 35 35 34 36 39 43 42 38 37 40 42 44 46 47 47 43 41 41 43 45 45 45 44 42 43 44 45 47 49 48 40 33 30 30 31 34 35 32 30 30 28 27 26 28
1 4 8 4 3 3 2 3 5 3 1 3 2 2 2 1 2 1 1 3 4 7 6 5 7 3 3 3 4 6 6 8 10 12 15 18 22 25 29 31 33 34 34 35 35 38 41 41 38 37 42 44 44 45 46 46 44 42 42 44 45 45 44 44 44 43 43 43 44 47 48 42 35 31 29 29 32 36 37 34 31 31 31 28 26 25
0 1 6 5 1 2 3 2 1 3 3 3 2 2 2 2 3 1 1 2 3 6 7 8 9 2 4 3 3 4 5 7 11 13 11 13 19 25 27 30 33 33 34 36 38 39 40 39 38 42 45 44 43 45 45 44 43 44 46 46 44 43 44 45 46 43 41 42 45 47 44 38 32 29 29 32 37 38 36 33 31 31 30 29 27 25
1 1 5 6 4 3 2 1 4 3 1 2 2 3 3 1 1 2 2 2 2 4 4 7 9 3 2 1 4 5 9 10 12 12 10 14 23 26 28 31 32 33 36 38 37 38 39 40 42 45 44 43 43 44 43 44 46 47 46 44 43 43 46 47 44 41 41 43 45 45 40 34 29 29 34 38 37 33 31 29 28 28 28 28 28 26
1 2 4 5 4 3 4 4 4 4 4 4 2 3 3 1 0 2 5 2 2 2 3 4 10 7 1 3 4 7 10 12 14 12 11 18 25 27 30 33 33 34 37 37 36 38 41 43 45 46 44 43 44 43 44 47 48 46 44 43 44 45 47 46 41 39 43 45 43 40 35 31 32 36 39 37 32 30 31 30 28 28 27 28 27 26
0 1 3 5 5 6 7 4 2 2 2 3 2 2 3 3 3 2 6 4 1 3 4 4 9 7 2 4 6 11 14 16 16 15 16 21 25 28 32 34 34 36 37 35 35 39 42 43 44 45 44 44 44 44 47 48 46 45 44 45 46 45 45 43 41 42 44 43 39 36 33 32 36 39 36 31 29 30 30 30 30 29 28 27 26 23
2 0 2 5 5 5 5 4 3 2 3 2 2 2 2 3 3 4 5 2 1 4 3 3 8 7 2 4 11 17 20 19 16 17 21 23 26 30 33 34 35 35 34 34 37 40 41 42 44 44 44 44 45 46 47 46 46 46 46 47 46 44 46 46 44 43 41 38 36 34 33 34 36 35 31 28 30 30 28 29 30 30 28 27 25 22
2 1 2 5 7 6 5 4 5 3 2 1 4 2 2 3 1 1 2 1 1 6 6 4 9 9 2 7 14 18 18 15 14 19 23 23 26 29 31 33 33 31 32 35 39 40 40 41 43 44 45 45 45 47 46 45 46 48 47 46 44 43 48 48 42 39 38 36 36 34 34 34 33 31 29 29 31 30 28 29 30 31 30 28 25 24
1 1 1 2 4 7 7 6 6 4 3 3 3 3 3 4 3 1 1 1 4 6 4 5 10 13 10 12 17 18 14 11 15 22 24 24 26 28 30 31 29 28 31 35 38 39 40 41 42 44 46 46 46 46 46 46 48 48 46 45 45 45 47 45 38 36 36 34 34 34 33 33 30 29 30 32 31 29 28 29 31 32 30 26 25 25
1 1 2 5 6 6 8 9 6 5 7 9 10 10 6 5 5 2 0 4 6 5 6 9 11 15 15 17 19 17 12 10 13 19 23 24 25 28 30 29 26 27 31 35 36 38 40 40 42 44 46 46 46 46 47 48 48 47 46 46 47 47 45 41 38 36 33 31 32 32 31 30 30 31 33 32 30 29 28 30 32 32 28 24 24 26
2 2 5 6 8 9 9 11 10 8 9 11 12 12 8 4 4 4 5 10 6 5 11 13 10 14 17 18 19 15 9 9 13 18 22 23 25 29 31 28 26 29 33 35 35 37 39 40 41 44 46 46 46 46 48 49 47 46 46 46 48 48 43 38 35 34 32 31 31 31 31 30 31 32 32 31 30 29 30 31 32 31 27 24 24 25
3 3 5 4 6 9 9 11 12 10 8 8 9 13 11 4 7 8 12 13 6 5 14 15 15 16 17 16 16 13 12 14 19 24 27 27 28 32 31 27 26 31 34 35 35 37 39 41 42 45 46 46 46 47 48 48 48 48 47 48 50 48 40 34 32 32 31 31 30 30 31 32 31 31 30 29 29 30 30 31 32 29 26 24 24 24
2 3 4 2 7 10 10 12 12 8 7 9 12 14 12 6 8 11 12 10 6 9 13 14 17 18 15 12 12 15 19 24 28 31 30 28 30 33 30 26 27 32 35 35 36 38 39 42 44 45 47 48 48 48 47 47 48 49 48 48 48 45 37 33 33 33 31 30 30 30 31 31 31 30 29 29 29 29 30 31 31 30 27 26 26 25
1 3 3 2 5 9 8 9 9 7 8 13 15 13 11 9 6 7 7 6 5 9 12 14 17 16 12 12 14 19 26 30 30 30 29 28 31 33 29 26 29 34 36 37 38 38 39 42 44 45 47 49 49 48 47 48 49 49 48 46 44 40 36 35 34 33 32 30 30 31 30 30 30 30 30 30 30 30 30 31 31 30 29 28 28 26
1 3 4 5 4 8 6 4 9 11 10 11 11 9 9 8 4 3 4 4 4 9 14 14 14 12 10 12 16 23 28 29 27 27 28 30 34 32 26 26 33 36 37 38 38 38 39 41 42 44 47 49 48 47 47 48 49 48 48 46 41 37 36 35 33 33 32 31 31 31 29 29 29 30 30 31 31 31 31 32 31 31 31 31 29 27
2 1 3 3 4 8 7 6 9 10 9 7 5 4 5 5 4 3 5 5 6 8 10 11 11 11 12 12 14 17 21 24 25 26 28 32 34 29 25 29 35 37 37 38 38 38 40 40 41 43 46 47 47 47 47 48 48 47 46 42 38 36 37 35 32 32 33 32 31 30 30 29 29 30 30 31 31 32 32 32 33 33 33 32 30 30
2 2 2 1 1 7 11 10 8 7 6 5 2 1 2 2 4 6 7 7 9 9 9 11 11 11 12 11 12 15 19 24 29 32 34 34 30 26 28 33 37 39 39 38 38 40 42 42 43 45 46 46 46 46 47 48 47 46 44 40 37 37 37 35 32 33 33 32 31 31 30 30 30 30 31 31 30 30 32 34 36 36 34 32 31 31
1 1 2 1 2 5 6 7 8 8 5 4 1 0 2 3 3 7 10 10 11 11 10 10 10 11 13 15 17 21 26 31 34 36 35 31 25 27 33 37 39 40 40 40 40 42 43 45 47 46 45 46 46 46 47 48 48 45 42 39 38 38 36 33 33 32 32 32 32 32 32 32 32 33 32 31 30 31 34 37 37 36 34 32 31 29
1 0 2 1 2 4 4 5 6 10 6 2 1 3 4 2 1 8 13 12 9 7 6 7 10 13 16 19 22 27 33 35 34 33 29 24 26 34 38 39 42 42 41 41 42 42 44 46 47 45 44 46 47 47 47 48 48 45 41 39 38 37 35 33 33 32 31 32 32 32 34 35 34 34 32 31 33 35 37 38 37 35 33 32 30 28
2 1 2 2 1 2 5 5 7 10 7 3 2 3 2 2 4 7 12 11 4 3 4 8 11 14 17 20 23 30 35 31 23 21 22 25 32 39 40 40 43 43 42 43 42 42 45 47 44 42 43 46 48 48 47 47 46 44 42 40 38 36 35 33 32 32 33 33 33 34 36 36 35 33 32 34 37 38 38 38 36 34 32 31 30 28
2 2 1 1 1 1 4 6 6 9 8 3 2 3 3 7 9 8 10 8 1 3 12 13 10 14 19 20 23 28 28 20 11 12 23 33 38 41 41 42 43 42 43 43 42 45 48 45 41 41 43 47 48 47 46 46 44 42 41 39 37 36 35 32 32 34 34 33 34 36 37 35 33 33 35 38 39 39 38 37 35 33 31 30 30 28
2 0 4 2 3 2 3 5 5 7 7 3 3 6 7 11 12 8 8 5 1 9 22 19 13 16 18 21 25 23 17 11 7 15 31 39 40 41 43 44 43 43 43 43 44 48 48 42 40 42 45 47 47 46 45 44 42 41 40 38 37 35 33 33 34 34 33 35 37 38 36 34 34 35 38 40 40 38 37 35 32 30 29 28 29 28
4 3 3 1 5 4 4 5 3 4 5 4 4 8 12 15 11 7 8 8 9 21 28 23 19 20 20 23 24 17 11 10 14 26 40 42 40 43 44 43 43 44 43 44 47 48 44 39 40 44 47 47 46 45 45 43 41 40 40 38 37 34 33 35 34 33 36 41 42 38 35 35 36 38 40 40 39 37 34 32 30 29 28 27 27 26
3 2 1 2 4 5 5 5 4 4 5 4 6 11 16 17 11 7 9 14 21 29 30 27 26 26 26 26 22 15 18 25 30 38 43 41 41 44 43 42 44 44 43 46 48 45 40 39 42 46 47 46 45 44 43 41 40 41 41 39 35 33 35 36 34 36 42 45 40 37 37 38 38 39 39 38 37 34 31 29 29 28 28 27 26 25
3 2 2 2 3 3 3 4 6 6 1 7 14 15 14 13 9 8 15 23 28 31 30 29 29 29 30 28 24 24 31 37 38 40 40 40 43 44 43 43 44 44 46 48 46 41 38 41 45 47 46 46 45 43 41 40 40 41 41 38 34 35 37 35 34 40 45 43 38 38 40 40 39 38 37 35 33 33 31 29 28 27 26 26 25 26
2 2 4 4 2 2 3 3 6 5 4 16 21 14 10 10 12 16 22 27 29 30 31 30 30 31 32 30 29 32 37 39 39 39 40 42 43 42 43 43 43 45 48 46 42 39 40 44 46 47 47 46 45 42 40 39 39 41 40 36 36 39 38 34 37 44 45 40 40 41 42 40 38 36 34 33 32 32 31 29 27 25 25 26 26 26
2 2 3 3 0 3 4 3 5 10 13 22 22 13 14 21 24 25 26 26 28 31 31 31 32 33 33 33 35 37 38 39 39 40 41 43 43 43 43 44 45 47 47 45 42 41 43 46 47 47 47 46 45 42 39 37 39 40 38 36 39 41 37 35 41 45 42 40 42 43 41 39 35 33 33 32 33 32 31 29 27 25 24 25 26 26
2 1 2 2 2 2 4 8 15 20 21 27 28 26 27 30 30 31 30 29 30 31 31 32 33 34 35 37 38 38 39 40 41 42 43 43 43 43 43 45 46 46 45 44 42 42 45 46 46 47 47 46 45 41 38 37 39 39 38 40 42 39 35 39 44 44 40 42 44 43 39 36 33 32 32 33 33 32 30 29 28 27 26 26 26 25
1 3 2 2 4 6 8 13 19 21 25 34 37 33 30 30 32 34 34 33 32 33 34 34 35 36 38 38 38 39 40 40 42 43 43 43 43 44 46 46 45 43 43 43 42 44 45 45 45 47 47 47 45 40 37 38 37 37 40 42 39 34 36 43 44 40 41 44 44 40 37 35 33 33 33 33 32 30 29 29 30 29 28 27 27 25
2 5 4 3 4 7 7 10 15 21 27 33 34 31 31 34 37 38 36 34 35 36 36 35 36 38 39 38 39 42 42 42 42 42 42 43 44 46 47 46 43 41 40 41 42 44 44 44 46 47 46 46 44 39 38 39 37 38 42 39 34 35 41 43 40 39 43 45 42 38 36 35 35 35 34 32 31 30 29 29 30 29 28 27 28 28
3 5 4 3 4 7 11 16 24 30 33 31 30 32 35 38 40 39 36 35 37 38 38 38 38 39 39 39 41 42 42 42 42 41 42 44 45 46 45 43 41 39 39 41 43 44 44 45 45 44 44 45 43 40 40 40 39 41 40 33 33 40 44 40 37 40 44 43 39 37 36 35 35 35 34 33 33 32 30 30 30 28 25 26 30 32
7 7 5 4 6 9 12 18 27 29 29 31 34 37 38 39 38 38 37 38 38 39 40 40 40 39 39 39 40 40 40 41 41 42 44 45 45 45 44 42 40 40 41 43 44 43 43 43 42 43 45 45 43 42 42 41 42 41 35 31 37 44 41 38 39 42 42 40 38 37 36 35 34 34 33 33 33 31 29 29 30 29 25 25 28 28
8 6 5 5 7 7 9 17 22 18 16 26 36 39 40 38 37 36 38 39 39 39 40 40 41 41 39 38 39 40 41 42 41 41 43 44 43 43 42 41 42 42 43 44 44 43 40 40 42 45 46 44 43 42 42 42 42 36 31 35 43 43 38 39 41 41 40 39 38 37 36 35 34 32 32 33 34 33 29 26 27 30 27 24 23 22
7 6 7 6 6 9 15 24 28 21 19 29 38 40 38 38 37 37 38 38 38 39 39 40 41 41 40 39 40 41 41 41 42 42 43 43 42 41 41 42 42 42 42 43 43 41 39 42 46 47 45 43 42 42 41 42 38 32 33 41 43 39 38 39 40 40 40 39 37 36 36 34 32 31 31 31 33 35 34 29 27 28 24 21 21 20
Wind_Direction
62 65 43 112 265 293 301 336 189 245 269 264 297 328 296 291 288 288 290 297 344 359 284 273 271 276 238 212 198 184 183 173 166 167 168 168 158 151 145 133 149 58 9 1 -0 359 355 348 344 344 343 342 341 341 343 342 336 333 334 335 334 335 334 333 331 328 326 323 319 317 316 315 312 310 309 305 299 299 300 300 300 299 296 292 289 287
62 72 349 257 247 290 296 294 329 315 304 297 290 311 315 295 284 290 285 296 359 21 286 284 286 283 258 213 190 178 177 175 173 172 166 158 143 133 125 127 223 343 350 359 2 357 351 346 345 345 344 343 342 342 342 338 333 332 333 334 331 332 334 334 331 329 328 325 320 318 318 317 313 311 309 305 303 303 301 301 302 303 303 302 300 298
46 54 298 288 299 338 332 349 28 2 6 28 340 330 325 304 293 291 275 289 352 7 288 292 292 279 266 204 176 174 173 177 176 166 151 142 131 124 107 301 293 8 5 3 360 353 348 347 346 346 344 344 343 341 337 334 332 330 330 329 328 329 330 331 331 329 327 323 319 315 314 313 311 308 304 302 302 301 299 300 301 303 303 302 301 300
52 324 288 311 346 -0 353 15 40 26 18 40 56 36 300 304 330 298 290 317 313 266 262 287 294 282 277 137 148 175 163 141 142 143 138 137 138 139 32 356 28 24 7 359 354 348 347 347 347 346 344 342 340 337 333 330 328 327 326 326 327 326 326 326 327 328 324 319 316 312 308 307 308 307 305 302 300 301 303 302 302 303 302 300 298 297
114 250 292 339 353 43 17 10 39 38 357 320 166 113 280 299 301 270 289 321 311 276 253 301 318 299 261 133 137 169 144 127 129 134 135 149 166 168 85 61 36 13 1 355 349 345 346 347 345 344 341 340 338 335 330 327 326 326 326 324 323 323 322 321 323 325 323 316 314 312 310 309 308 309 309 306 302 302 303 301 300 301 300 298 296 294
295 269 341 1 355 48 74 22 47 86 355 318 247 213 266 296 294 287 308 338 340 320 317 25 353 300 296 181 188 175 128 131 143 149 159 168 161 128 77 45 10 359 353 347 344 344 345 345 342 340 340 340 337 334 330 327 328 328 325 322 322 321 320 320 321 324 324 318 316 316 314 313 310 308 307 305 303 301 299 297 297 298 296 296 295 293
329 344 27 40 13 45 59 5 250 118 54 321 246 227 288 311 306 301 314 343 342 279 290 27 289 266 307 296 216 176 140 143 157 173 182 167 117 79 53 22 4 356 346 340 341 343 343 342 341 341 342 341 337 332 327 324 326 327 324 321 320 319 319 320 321 324 325 322 320 319 315 312 309 307 304 302 300 298 296 296 297 296 295 295 295 292
304 355 18 37 36 48 38 321 244 129 93 272 252 286 322 314 302 297 304 297 238 267 308 339 210 253 289 288 241 141 125 143 188 208 186 132 91 55 29 16 2 348 341 340 340 341 342 343 343 343 342 339 334 327 320 320 324 326 323 320 320 320 320 320 321 322 321 318 316 315 314 312 309 307 305 303 301 298 296 295 295 294 293 293 290 287
290 355 358 46 38 23 333 271 236 139 121 257 260 302 305 292 288 289 291 270 246 282 306 315 12 303 270 279 46 104 120 156 211 216 158 116 64 28 18 1 346 340 340 342 342 341 343 344 344 343 340 337 332 324 319 320 324 326 324 321 320 321 321 321 321 319 317 316 316 315 314 313 311 310 308 305 301 299 297 294 292 291 291 291 289 285
272 219 213 127 77 323 277 268 240 162 199 270 289 305 293 284 283 281 264 264 294 152 253 290 28 344 283 302 61 119 127 173 215 203 163 92 26 21 4 342 340 345 347 345 343 342 342 343 342 341 338 335 331 324 319 320 324 326 325 322 319 320 321 321 319 316 317 318 317 315 315 314 313 314 313 310 305 302 300 297 294 292 291 290 288 286
284 268 228 150 155 250 271 284 261 191 226 302 345 330 303 293 291 288 202 117 65 276 245 231 152 24 318 295 228 195 182 172 180 231 274 326 16 6 348 347 352 354 351 346 343 342 341 339 338 338 337 335 331 324 320 323 328 329 327 323 320 320 321 320 317 317 318 317 314 312 314 315 316 316 315 312 308 305 303 302 300 297 294 292 290 289
327 350 271 258 248 275 315 312 303 247 309 5 21 354 329 317 332 4 9 43 52 277 251 231 347 9 275 262 239 222 218 172 165 202 236 256 352 352 350 357 359 355 351 348 345 342 339 336 337 338 337 335 330 326 326 331 333 332 329 325 322 322 321 319 317 318 317 314 311 310 312 314 315 315 311 307 304 301 301 302 302 301 298 295 292 289
319 269 287 299 274 303 26 346 331 355 25 34 36 23 4 341 351 358 345 352 298 254 239 352 1 344 242 245 221 211 215 204 202 187 156 24 356 354 356 358 357 355 353 350 345 340 337 337 338 339 337 334 330 329 332 334 333 331 328 325 323 322 321 320 319 318 316 312 309 309 312 314 315 313 308 304 300 296 295 296 298 299 298 295 293 288
326 299 324 343 302 321 80 26 327 324 356 1 25 64 54 21 345 324 311 320 298 267 248 31 -0 295 279 267 206 210 209 208 205 170 71 10 354 353 358 0 357 355 352 348 343 339 338 339 338 338 337 334 330 332 333 332 331 329 327 325 323 321 320 320 319 318 315 310 308 310 313 314 315 312 306 302 300 296 294 293 292 293 294 295 294 291
330 307 301 247 312 352 46 177 208 215 296 284 156 122 112 117 206 266 255 273 294 289 294 347 307 243 273 249 205 207 195 178 157 115 8 353 356 0 0 1 357 353 350 345 341 339 338 337 337 337 335 332 330 331 331 330 330 328 327 325 322 321 320 320 320 318 314 309 309 312 313 315 315 311 304 300 300 301 300 298 294 292 291 291 292 292
317 275 256 241 280 316 323 230 171 99 314 269 116 91 67 177 178 217 226 227 268 289 290 295 245 217 232 254 205 156 128 85 30 358 355 356 359 0 360 359 355 350 346 342 339 337 337 337 336 334 333 331 330 329 329 329 329 328 326 324 321 321 320 319 319 317 312 309 310 312 314 316 317 311 303 300 302 303 302 301 299 296 292 290 288 288
0 278 276 310 308 238 173 259 238 116 256 311 55 262 247 176 147 180 266 271 293 285 275 246 252 289 329 318 37 65 42 23 5 357 358 356 357 -0 359 355 351 347 343 340 337 336 336 337 335 333 333 332 330 329 329 328 328 327 325 323 322 321 319 319 318 315 311 309 312 314 316 318 318 309 301 302 304 304 305 306 305 300 295 294 290 287
180 282 287 288 280 271 128 316 291 241 154 78 247 242 255 87 101 113 282 315 318 279 271 216 239 287 344 317 356 28 11 357 357 356 352 354 1 360 353 349 346 344 342 339 337 336 336 336 335 335 335 333 331 330 329 328 328 327 325 324 323 321 319 319 318 315 312 311 314 317 319 319 314 306 301 302 304 306 309 311 310 307 302 298 294 290
149 297 291 254 226 284 8 18 314 305 111 137 200 187 91 22 312 31 322 288 287 283 286 274 268 258 187 248 337 9 4 353 348 347 350 -0 4 354 346 346 344 343 342 339 338 337 337 338 337 338 336 333 332 331 330 329 328 327 326 323 322 320 319 319 318 315 312 313 317 319 320 317 311 305 304 304 305 307 309 307 304 306 307 303 299 294
79 267 285 290 310 326 1 37 280 290 346 41 33 20 62 171 202 201 221 202 251 278 285 293 295 258 193 252 8 14 353 358 350 348 358 5 357 348 346 345 343 343 343 340 339 338 340 340 338 337 336 333 333 332 330 330 328 327 326 323 322 321 321 320 317 314 312 316 319 319 319 316 310 307 310 312 310 308 308 306 302 303 305 304 302 297
343 191 262 298 347 4 321 256 195 210 264 34 10 314 314 304 216 257 254 173 191 260 272 303 299 259 169 38 63 21 357 2 355 353 3 358 351 348 346 345 344 344 343 340 340 341 341 339 337 337 336 334 334 333 331 330 328 327 326 325 324 323 323 321 316 313 315 319 320 320 319 315 309 310 314 314 311 308 311 311 307 305 306 306 303 299
324 216 256 300 331 311 260 233 213 211 193 172 192 229 231 243 304 299 282 227 143 220 233 284 287 277 157 92 54 18 0 356 359 6 3 351 348 347 346 346 345 343 342 341 342 343 340 338 337 337 337 336 335 333 331 330 328 328 327 326 325 324 324 322 317 315 318 320 320 320 317 312 310 312 312 312 313 313 315 315 312 310 310 310 307 302
50 220 263 273 266 266 270 271 290 282 191 154 186 203 174 151 142 208 266 276 246 252 247 253 276 279 149 109 29 12 354 348 2 12 357 347 348 347 346 345 343 341 341 342 343 342 340 338 337 336 336 336 335 333 332 331 330 329 327 325 325 325 325 324 319 318 320 320 320 319 315 311 312 314 315 315 316 315 314 315 316 315 312 310 310 305
2 301 292 282 270 273 289 313 337 1 57 52 271 232 165 176 178 197 226 262 305 255 243 258 274 270 145 65 10 359 346 346 2 4 352 347 347 347 345 342 340 339 340 341 341 340 339 338 337 336 336 335 334 333 332 332 331 329 327 325 324 323 325 325 320 318 320 320 320 318 314 313 314 317 318 316 315 314 315 316 316 315 312 311 314 312
329 268 336 325 320 323 328 336 325 325 49 263 261 269 207 199 172 272 232 62 296 239 207 225 272 273 301 11 357 349 344 351 359 352 349 348 346 346 343 338 337 338 339 339 338 338 337 336 336 335 335 334 334 333 333 332 330 329 328 326 324 323 325 326 322 319 320 320 319 317 315 315 315 316 317 315 314 315 316 316 314 313 313 313 315 315
262 242 326 324 311 311 308 307 306 306 310 285 277 301 275 209 180 254 287 254 264 254 219 218 265 283 313 345 343 342 348 356 352 345 345 346 344 342 338 335 335 338 338 337 336 335 335 335 335 335 334 334 334 333 333 332 330 330 328 327 326 324 326 327 325 322 320 319 318 317 316 316 315 315 316 315 316 317 318 316 314 314 314 313 314 312
147 271 233 211 224 253 269 274 287 315 310 299 297 293 274 213 196 184 180 251 262 292 281 256 267 294 317 333 335 340 352 351 342 341 341 341 341 338 334 332 333 335 336 335 334 333 333 333 334 334 334 334 334 333 333 331 330 330 328 327 327 326 326 326 324 322 320 319 318 317 316 316 316 316 317 317 318 319 319 315 315 317 316 313 313 311
81 312 263 233 235 247 262 276 290 308 297 289 292 289 277 221 189 178 224 254 277 323 285 279 305 317 317 327 332 339 354 343 335 338 338 337 336 335 332 329 330 333 334 333 332 332 332 332 333 334 334 334 333 333 332 331 331 330 328 328 329 328 325 324 324 322 321 320 319 318 318 318 317 317 318 319 320 319 317 316 317 319 318 314 314 314
109 263 252 242 264 268 274 283 290 296 285 272 278 287 288 247 194 207 238 253 265 270 274 297 326 318 312 325 333 340 348 337 332 332 332 331 332 332 330 328 330 332 332 331 332 332 332 332 332 333 333 333 333 333 332 331 331 330 329 328 329 328 326 324 324 323 322 322 320 320 320 319 318 318 319 319 318 318 317 318 321 323 321 319 319 318
125 255 263 271 279 279 277 278 285 291 288 289 288 291 297 274 219 225 245 259 264 259 273 306 317 308 313 330 334 338 337 330 327 328 328 329 330 329 327 326 329 332 331 331 331 332 332 332 331 332 332 333 333 333 333 331 331 330 329 329 329 328 326 325 324 324 324 323 322 321 321 320 320 319 319 318 317 318 317 318 323 327 326 323 321 320
122 277 318 14 303 291 277 269 284 293 290 295 294 292 300 297 260 238 258 285 297 285 295 314 309 304 321 341 337 334 332 329 327 326 327 329 328 326 325 327 330 331 330 329 329 330 331 331 330 331 332 332 332 333 332 331 330 330 329 329 329 328 327 326 325 325 325 324 323 323 322 322 321 321 320 319 318 317 317 319 324 325 324 323 324 324
107 289 343 35 336 296 279 287 307 308 301 296 296 302 306 301 284 239 253 266 285 299 308 313 308 308 330 343 335 329 330 331 327 324 326 327 325 324 325 328 330 329 328 327 327 328 329 329 330 330 330 331 332 332 332 331 330 330 329 329 328 327 327 326 325 325 326 325 325 324 324 323 322 321 320 320 319 318 319 322 323 322 322 325 327 326
114 327 328 12 322 291 299 320 309 309 316 308 296 302 298 295 303 285 273 285 298 305 310 309 308 319 333 336 328 326 332 330 324 322 324 322 321 322 326 329 328 326 326 326 325 327 329 329 330 330 330 330 331 331 330 330 330 329 329 328 327 326 327 327 325 325 325 326 325 325 325 324 323 322 321 320 319 319 320 321 322 323 323 323 323 323
103 103 273 280 274 287 307 325 324 323 325 299 266 188 233 277 308 299 291 296 299 299 302 305 314 328 332 327 322 324 325 323 321 319 318 317 319 324 328 328 325 324 325 326 326 328 329 330 330 330 330 330 330 330 330 330 330 329 329 328 327 327 328 327 326 325 325 326 326 326 326 325 324 322 320 320 320 319 318 320 323 325 324 322 323 324
57 60 271 239 210 272 310 352 343 321 296 257 239 17 288 263 269 293 296 292 297 307 315 320 324 323 316 312 313 317 319 320 319 316 314 317 323 328 329 327 325 326 327 327 328 329 330 331 330 330 331 331 331 330 330 330 330 330 329 329 328 328 329 328 327 327 327 327 328 327 326 325 324 321 320 320 321 320 320 323 325 326 325 324 326 327
102 301 290 268 247 290 340 10 322 300 297 305 312 314 315 309 314 314 308 304 313 330 341 332 316 307 307 308 311 317 320 319 315 312 315 323 329 330 328 326 325 326 326 327 328 328 330 331 330 330 331 331 331 331 331 331 331 331 329 329 329 328 328 328 328 328 329 328 328 327 327 325 323 322 321 320 321 321 324 326 326 326 327 327 326 326
139 134 337 319 254 294 321 306 287 297 313 337 299 303 332 327 317 312 307 312 346 43 353 320 305 307 312 311 313 320 321 317 310 311 322 330 330 329 327 325 325 325 325 326 326 327 329 330 329 330 332 332 331 332 332 332 332 332 330 329 330 330 329 328 329 330 329 328 327 327 326 325 324 322 321 321 323 325 327 328 326 326 327 327 326 327
124 155 139 326 288 342 323 302 302 315 317 306 257 265 273 292 293 291 299 309 74 30 340 330 312 316 321 317 318 322 320 315 307 317 330 331 329 327 325 325 325 325 325 326 326 327 329 329 330 332 333 333 332 332 333 333 332 332 331 330 330 330 330 330 330 330 329 329 328 327 326 324 323 320 320 323 326 327 328 328 327 327 328 327 326 326
339 42 114 110 288 311 322 298 299 306 304 296 256 258 274 291 290 288 300 304 81 346 340 340 324 320 324 320 321 323 321 317 312 321 328 329 327 327 326 325 326 326 326 326 327 328 329 329 331 334 334 335 334 333 334 333 332 332 333 332 331 330 331 332 331 331 330 329 328 326 325 323 322 322 323 326 328 328 328 328 327 328 329 328 327 326
339 353 59 354 280 288 297 284 270 260 271 281 275 287 307 311 307 312 313 318 346 343 340 340 329 324 325 321 321 324 320 315 314 319 324 326 325 326 326 326 326 326 326 326 328 328 329 330 333 335 336 337 336 334 335 334 333 333 334 332 331 331 332 331 331 330 329 328 328 329 327 325 324 325 327 328 329 330 330 330 331 332 332 331 329 327
348 336 353 255 272 293 293 283 288 271 265 293 301 308 322 323 322 331 318 320 335 336 335 336 330 326 325 321 318 316 314 313 313 316 321 324 324 325 326 326 326 326 326 327 329 329 329 332 335 336 336 337 337 336 335 334 332 333 334 333 332 332 332 331 329 329 329 330 331 331 329 328 328 328 329 330 332 333 334 335 335 334 334 333 331 329
345 328 324 300 285 291 258 272 307 292 268 4 341 336 352 349 328 321 320 322 329 329 329 332 329 325 325 319 312 312 314 316 316 317 322 325 324 324 325 325 326 326 326 328 329 330 331 333 335 335 336 337 338 337 336 334 333 333 334 334 332 332 332 331 329 330 331 333 333 331 330 331 332 332 333 336 338 338 338 340 340 337 337 336 335 334
323 318 318 302 282 309 290 299 319 299 4 14 -0 356 16 359 325 320 322 324 327 328 327 328 327 325 325 319 315 316 316 317 319 320 323 324 323 323 324 325 326 327 328 328 329 331 333 334 335 335 335 337 338 337 336 334 333 334 335 334 332 333 332 330 330 331 333 335 334 333 334 334 334 336 339 342 345 343 341 343 345 343 343 342 339 338
291 299 309 290 283 354 332 317 299 293 327 2 3 347 338 336 332 332 329 326 328 329 328 326 325 326 326 322 320 320 317 318 321 323 324 324 324 324 324 325 327 328 329 329 330 331 334 334 333 334 335 337 338 337 337 336 334 334 335 334 334 334 333 330 330 333 336 337 336 335 335 335 337 341 345 348 348 345 344 347 349 349 350 347 344 341
282 254 264 256 237 255 255 267 286 297 323 347 345 335 333 336 337 337 332 327 328 329 328 326 325 325 326 324 322 320 318 320 323 325 324 324 325 326 326 326 328 329 330 332 332 333 334 333 333 334 335 337 338 337 338 338 336 335 335 335 336 337 334 331 332 336 339 337 335 335 336 338 342 347 350 350 348 346 348 351 352 353 354 353 349 345
325 3 347 289 281 278 266 276 294 313 332 336 333 332 335 337 338 338 334 330 329 328 328 327 325 325 326 325 322 320 320 322 325 326 326 325 325 326 327 328 329 331 332 333 334 334 334 334 334 335 335 338 339 339 338 338 337 336 336 337 340 340 334 332 336 339 339 336 335 337 339 342 347 350 351 350 351 351 353 353 353 353 355 357 354 348
9 8 341 285 299 314 303 299 316 329 330 328 328 333 337 338 339 339 336 332 330 329 328 328 326 326 326 325 325 324 324 325 326 326 327 328 327 327 328 329 331 333 334 336 336 336 335 335 335 335 337 338 339 338 338 338 338 338 338 340 342 338 334 336 340 340 336 335 337 341 344 346 348 349 350 352 356 357 358 360 359 358 359 2 358 351
326 339 322 277 294 304 300 314 329 329 326 329 335 337 338 338 337 337 336 334 332 330 329 330 329 328 328 328 328 328 328 328 329 328 328 328 328 328 329 330 332 335 337 338 337 337 336 335 335 337 338 338 338 338 339 340 339 340 342 344 340 336 337 341 342 337 335 338 341 343 346 347 347 347 350 355 358 358 360 5 6 5 7 9 1 353
313 313 311 310 310 299 300 323 335 331 327 334 338 336 336 337 335 336 336 335 333 333 332 332 332 331 330 331 332 332 330 330 330 331 329 328 328 330 332 332 334 336 338 337 337 336 336 336 338 338 338 337 338 340 341 341 341 343 346 343 337 337 342 344 340 336 337 341 344 345 346 345 346 348 352 356 360 1 3 6 8 8 10 9 2 354
329 318 325 332 324 312 315 331 337 332 322 328 331 332 334 337 336 337 337 336 337 337 335 334 333 333 333 334 334 334 332 330 331 331 330 329 330 332 334 335 336 337 338 338 338 338 339 340 339 337 337 339 341 342 342 342 344 347 346 339 337 341 346 344 339 338 342 344 345 345 344 344 346 352 356 359 3 5 6 10 11 10 8 5 4 4
329 323 333 330 308 308 318 326 330 326 314 319 326 331 334 337 338 338 339 340 340 339 338 336 335 334 336 336 335 335 334 333 334 333 331 331 333 334 336 336 336 337 338 340 340 341 341 340 338 338 340 342 343 343 342 343 347 348 341 338 340 346 348 344 341 342 343 344 344 344 343 343 348 354 359 3 6 6 5 7 9 7 9 15 18 18
Height
1523 1529 1535 1538 1540 1540 1540 1540 1539 1539 1539 1539 1539 1539 1538 1537 1532 1526 1523 1520 1519 1518 1513 1512 1513 1511 1511 1511 1511 1512 1512 1513 1515 1516 1517 1518 1520 1520 1521 1522 1522 1522 1521 1521 1521 1521 1520 1518 1517 1515 1514 1512 1510 1509 1507 1505 1504 1502 1499 1497 1494 1493 1491 1488 1486 1483 1480 1478 1475 1473 1471 1468 1466 1464 1462 1461 1459 1458 1456 1455 1454 1453 1451 1450 1449 1448
1526 1533 1542 1542 1541 1541 1540 1540 1540 1539 1538 1538 1538 1538 1536 1535 1532 1525 1523 1520 1518 1519 1514 1510 1512 1509 1506 1507 1509 1510 1511 1512 1512 1514 1516 1517 1519 1520 1521 1521 1521 1521 1521 1520 1520 1518 1517 1515 1514 1512 1511 1510 1508 1506 1505 1503 1502 1500 1498 1495 1493 1490 1488 1486 1484 1481 1479 1476 1474 1471 1468 1465 1463 1461 1459 1458 1456 1455 1453 1452 1451 1449 1448 1447 1445 1444
1533 1539 1543 1541 1541 1541 1540 1540 1540 1539 1538 1538 1538 1537 1535 1534 1531 1524 1520 1520 1520 1521 1514 1508 1511 1508 1503 1504 1507 1508 1509 1511 1511 1513 1515 1517 1518 1519 1520 1520 1520 1520 1520 1519 1517 1515 1514 1513 1512 1510 1509 1508 1506 1504 1503 1501 1499 1497 1495 1493 1490 1488 1485 1484 1481 1479 1477 1474 1472 1469 1466 1463 1460 1458 1456 1454 1453 1451 1450 1448 1447 1445 1445 1444 1442 1440
1540 1543 1542 1540 1540 1539 1539 1539 1539 1537 1537 1539 1538 1537 1537 1535 1535 1527 1518 1519 1521 1520 1513 1508 1510 1507 1503 1504 1507 1509 1509 1510 1512 1513 1515 1516 1517 1518 1519 1519 1519 1518 1518 1516 1514 1513 1512 1511 1510 1508 1506 1505 1504 1502 1500 1499 1497 1494 1492 1490 1487 1485 1482 1480 1478 1476 1474 1471 1468 1466 1463 1460 1457 1455 1453 1451 1449 1447 1446 1444 1442 1441 1440 1440 1439 1437
1543 1543 1540 1539 1539 1538 1540 1539 1539 1538 1538 1539 1538 1537 1537 1534 1535 1531 1524 1521 1518 1515 1512 1510 1509 1503 1502 1507 1508 1510 1511 1511 1512 1513 1514 1515 1516 1518 1518 1518 1518 1516 1515 1514 1513 1512 1511 1509 1507 1505 1505 1504 1502 1501 1499 1496 1494 1492 1489 1487 1484 1481 1479 1477 1475 1473 1471 1468 1465 1462 1459 1456 1453 1451 1449 1447 1444 1443 1442 1440 1438 1437 1436 1436 1435 1434
1543 1541 1539 1539 1538 1539 1539 1538 1540 1540 1539 1540 1536 1534 1534 1532 1532 1529 1526 1526 1520 1513 1510 1512 1514 1506 1501 1506 1508 1510 1511 1511 1513 1513 1514 1515 1516 1517 1517 1516 1516 1515 1514 1514 1513 1512 1509 1507 1505 1505 1504 1502 1500 1498 1496 1494 1492 1489 1486 1484 1481 1478 1476 1473 1472 1470 1467 1464 1461 1458 1455 1453 1450 1447 1445 1444 1441 1439 1437 1435 1433 1432 1432 1432 1430 1429
1541 1540 1540 1540 1539 1539 1539 1539 1540 1540 1541 1540 1533 1531 1531 1530 1530 1525 1525 1529 1525 1516 1510 1512 1520 1515 1503 1500 1505 1510 1512 1512 1513 1514 1514 1515 1516 1516 1516 1516 1515 1515 1514 1513 1512 1509 1507 1506 1506 1504 1501 1499 1497 1496 1494 1491 1489 1487 1484 1481 1478 1475 1472 1470 1468 1466 1464 1461 1459 1456 1453 1450 1447 1444 1442 1440 1438 1436 1433 1431 1429 1428 1427 1427 1426 1425
1541 1540 1540 1540 1540 1539 1539 1539 1539 1539 1541 1536 1529 1530 1530 1528 1528 1524 1525 1530 1526 1519 1513 1510 1514 1514 1505 1501 1506 1510 1512 1514 1514 1513 1514 1515 1515 1515 1515 1515 1515 1514 1513 1512 1510 1507 1508 1508 1505 1501 1498 1497 1496 1494 1491 1489 1486 1483 1481 1478 1475 1472 1469 1467 1465 1462 1461 1458 1456 1453 1450 1447 1444 1441 1438 1435 1433 1431 1429 1426 1424 1423 1422 1421 1421 1420
1542 1541 1541 1541 1541 1540 1538 1538 1538 1539 1539 1533 1529 1531 1530 1528 1526 1522 1524 1526 1524 1521 1516 1510 1510 1513 1507 1503 1510 1512 1511 1514 1514 1513 1514 1514 1514 1514 1514 1515 1514 1514 1513 1511 1510 1509 1508 1505 1501 1498 1497 1495 1494 1491 1488 1485 1482 1480 1477 1475 1471 1469 1466 1463 1461 1459 1457 1455 1452 1449 1446 1443 1440 1437 1434 1431 1429 1426 1424 1422 1420 1418 1417 1416 1416 1415
1542 1541 1542 1542 1541 1541 1538 1536 1537 1537 1535 1531 1530 1530 1528 1527 1523 1520 1523 1521 1521 1520 1514 1510 1513 1518 1512 1503 1508 1512 1509 1512 1513 1512 1514 1513 1513 1514 1514 1515 1514 1513 1512 1511 1511 1509 1504 1500 1498 1497 1495 1493 1490 1488 1485 1481 1479 1476 1473 1471 1468 1465 1463 1460 1458 1455 1453 1451 1448 1445 1443 1439 1436 1433 1430 1427 1424 1422 1419 1417 1415 1413 1412 1411 1411 1410
1543 1542 1542 1541 1540 1540 1538 1536 1535 1535 1534 1530 1531 1530 1526 1525 1521 1518 1519 1518 1520 1517 1511 1513 1515 1519 1518 1507 1506 1510 1508 1509 1512 1512 1512 1512 1514 1515 1515 1515 1513 1512 1512 1510 1507 1503 1500 1498 1497 1495 1492 1490 1487 1484 1482 1478 1475 1473 1470 1467 1465 1462 1460 1457 1454 1451 1448 1446 1444 1441 1438 1435 1432 1429 1426 1423 1419 1417 1414 1412 1410 1408 1407 1406 1406 1405
1543 1541 1541 1540 1540 1540 1539 1537 1533 1533 1534 1531 1533 1533 1526 1523 1520 1517 1516 1518 1521 1515 1509 1513 1512 1514 1519 1509 1504 1508 1508 1509 1510 1510 1512 1513 1514 1515 1514 1513 1512 1511 1509 1505 1502 1500 1499 1497 1495 1493 1490 1487 1484 1481 1479 1476 1473 1470 1467 1465 1461 1458 1456 1453 1450 1447 1444 1442 1439 1437 1434 1431 1428 1425 1422 1419 1415 1413 1410 1408 1405 1404 1403 1402 1401 1401
1541 1540 1541 1540 1539 1540 1539 1537 1534 1533 1533 1532 1534 1535 1533 1533 1530 1526 1524 1524 1522 1513 1509 1512 1511 1511 1512 1505 1502 1506 1507 1508 1508 1509 1512 1513 1513 1513 1513 1512 1510 1508 1504 1501 1501 1500 1499 1497 1494 1491 1488 1484 1482 1479 1476 1473 1471 1468 1465 1462 1458 1454 1452 1449 1446 1443 1440 1438 1435 1432 1429 1426 1423 1420 1417 1413 1410 1408 1406 1404 1402 1400 1398 1397 1396 1396
1542 1540 1541 1540 1538 1539 1539 1538 1536 1534 1534 1535 1535 1535 1539 1544 1546 1544 1539 1533 1524 1512 1506 1511 1515 1514 1507 1501 1502 1504 1504 1506 1507 1509 1511 1512 1513 1513 1511 1509 1506 1502 1501 1500 1501 1500 1498 1495 1492 1489 1486 1483 1480 1477 1474 1471 1468 1465 1461 1458 1454 1451 1448 1445 1442 1439 1436 1433 1430 1428 1425 1422 1418 1414 1411 1407 1404 1402 1401 1399 1397 1396 1394 1392 1391 1391
1550 1543 1540 1539 1538 1539 1539 1539 1539 1538 1537 1537 1536 1537 1539 1544 1551 1553 1545 1537 1530 1518 1511 1513 1515 1511 1503 1500 1501 1501 1503 1507 1509 1510 1512 1511 1510 1508 1505 1504 1501 1499 1500 1501 1500 1499 1497 1494 1491 1487 1484 1481 1478 1474 1471 1468 1465 1461 1458 1455 1451 1447 1444 1441 1438 1435 1432 1429 1426 1423 1420 1417 1413 1408 1404 1402 1400 1398 1396 1394 1392 1391 1390 1388 1387 1387
1555 1546 1540 1540 1539 1539 1539 1539 1539 1539 1537 1537 1537 1537 1538 1539 1544 1547 1542 1537 1536 1532 1523 1516 1509 1501 1498 1498 1499 1501 1504 1507 1510 1510 1508 1506 1504 1503 1502 1501 1500 1501 1501 1501 1499 1497 1495 1492 1489 1486 1482 1479 1476 1472 1469 1465 1462 1458 1455 1451 1447 1444 1440 1437 1434 1431 1428 1424 1421 1418 1415 1411 1407 1403 1399 1397 1395 1393 1391 1389 1387 1386 1385 1384 1384 1383
1557 1546 1540 1541 1539 1538 1539 1539 1539 1539 1536 1536 1538 1536 1536 1538 1540 1543 1542 1537 1539 1539 1524 1509 1504 1501 1500 1500 1499 1503 1506 1506 1507 1506 1504 1504 1503 1502 1502 1501 1502 1502 1501 1500 1498 1496 1493 1490 1487 1483 1480 1477 1474 1470 1466 1462 1459 1455 1452 1448 1444 1440 1437 1433 1431 1427 1423 1419 1416 1413 1410 1406 1402 1398 1395 1393 1391 1389 1386 1384 1382 1381 1380 1380 1379 1379
1561 1551 1542 1541 1538 1536 1539 1538 1537 1538 1537 1537 1538 1536 1536 1538 1539 1543 1546 1541 1542 1541 1521 1505 1506 1509 1509 1507 1501 1503 1507 1507 1506 1506 1505 1504 1503 1502 1503 1503 1503 1502 1501 1500 1498 1495 1492 1488 1485 1481 1478 1475 1472 1468 1463 1460 1456 1453 1449 1445 1441 1437 1432 1429 1426 1422 1418 1414 1411 1407 1404 1401 1397 1394 1392 1389 1387 1384 1382 1381 1379 1377 1375 1375 1375 1374
1565 1556 1543 1539 1539 1538 1539 1539 1537 1536 1537 1537 1536 1536 1538 1540 1540 1544 1548 1546 1546 1543 1524 1508 1508 1511 1509 1506 1503 1505 1509 1509 1508 1507 1505 1504 1505 1505 1504 1503 1502 1501 1499 1498 1495 1493 1489 1486 1483 1480 1477 1473 1469 1465 1461 1457 1453 1450 1446 1442 1438 1434 1429 1425 1422 1418 1414 1410 1406 1403 1399 1396 1393 1391 1388 1385 1383 1381 1379 1377 1375 1373 1372 1371 1370 1370
1564 1560 1548 1539 1539 1540 1539 1539 1537 1535 1537 1537 1537 1538 1540 1541 1543 1545 1545 1545 1547 1543 1531 1516 1508 1508 1505 1501 1503 1508 1508 1508 1508 1506 1506 1507 1507 1507 1505 1503 1501 1499 1498 1495 1493 1490 1487 1484 1481 1478 1475 1471 1467 1463 1458 1454 1450 1446 1442 1438 1434 1430 1426 1422 1418 1413 1409 1406 1402 1399 1395 1392 1389 1387 1384 1381 1379 1377 1375 1373 1371 1370 1368 1367 1366 1365
1563 1563 1554 1542 1541 1542 1539 1538 1538 1537 1538 1539 1540 1541 1541 1540 1542 1543 1542 1541 1543 1542 1538 1529 1512 1503 1502 1499 1502 1506 1506 1506 1507 1505 1507 1507 1506 1506 1504 1502 1500 1498 1496 1493 1490 1488 1485 1482 1479 1476 1472 1468 1464 1460 1456 1452 1447 1443 1438 1434 1430 1426 1421 1417 1412 1409 1405 1401 1398 1394 1390 1388 1385 1383 1380 1378 1376 1373 1371 1369 1368 1367 1365 1364 1362 1361
1563 1562 1557 1550 1547 1543 1538 1539 1540 1540 1540 1539 1539 1540 1540 1540 1542 1547 1543 1538 1540 1538 1535 1535 1520 1501 1498 1499 1500 1503 1504 1505 1506 1506 1507 1506 1505 1504 1502 1501 1499 1497 1494 1491 1488 1486 1483 1479 1476 1472 1469 1465 1461 1457 1452 1448 1443 1439 1434 1430 1426 1422 1418 1413 1408 1404 1401 1397 1394 1390 1387 1384 1381 1379 1377 1375 1372 1370 1368 1366 1364 1363 1362 1360 1358 1357
1566 1565 1562 1557 1551 1542 1538 1540 1541 1541 1539 1539 1540 1539 1539 1541 1542 1546 1543 1536 1539 1537 1530 1534 1524 1502 1495 1496 1497 1500 1503 1504 1506 1507 1506 1505 1504 1502 1500 1498 1497 1494 1492 1489 1487 1484 1481 1477 1473 1469 1465 1462 1458 1453 1449 1444 1440 1435 1431 1427 1423 1418 1414 1410 1405 1401 1397 1393 1390 1387 1384 1381 1378 1376 1373 1371 1369 1367 1365 1363 1361 1359 1358 1356 1355 1353
1566 1565 1562 1554 1546 1539 1538 1540 1540 1540 1539 1538 1538 1538 1539 1540 1538 1540 1540 1540 1544 1538 1533 1537 1523 1497 1490 1493 1495 1500 1503 1505 1506 1506 1506 1504 1502 1500 1498 1496 1494 1492 1490 1487 1484 1482 1478 1475 1471 1466 1462 1458 1454 1450 1445 1441 1436 1432 1428 1423 1419 1414 1410 1406 1401 1397 1393 1389 1386 1383 1380 1378 1375 1372 1370 1368 1366 1364 1361 1360 1358 1356 1354 1352 1351 1350
1564 1561 1560 1556 1550 1543 1539 1539 1539 1539 1540 1538 1537 1538 1538 1537 1538 1539 1540 1545 1545 1533 1531 1537 1516 1488 1485 1491 1495 1500 1503 1505 1506 1506 1505 1503 1501 1499 1497 1495 1493 1490 1487 1485 1481 1478 1475 1471 1467 1463 1459 1455 1451 1447 1442 1438 1433 1429 1424 1420 1415 1410 1406 1402 1397 1393 1389 1386 1383 1380 1377 1374 1372 1369 1367 1365 1363 1360 1358 1356 1354 1352 1351 1349 1348 1346
1565 1563 1563 1562 1562 1558 1551 1546 1541 1540 1540 1538 1536 1539 1538 1538 1540 1539 1540 1546 1542 1527 1526 1530 1511 1487 1486 1493 1496 1500 1503 1504 1505 1504 1503 1502 1500 1498 1496 1493 1491 1488 1485 1483 1479 1475 1472 1468 1465 1461 1456 1452 1448 1444 1439 1435 1430 1425 1421 1417 1413 1408 1402 1398 1394 1390 1386 1383 1380 1377 1374 1371 1369 1366 1364 1362 1359 1357 1355 1354 1351 1349 1347 1345 1344 1343
1568 1566 1563 1561 1561 1560 1554 1547 1544 1545 1544 1540 1537 1536 1537 1539 1540 1540 1544 1541 1532 1526 1523 1517 1507 1497 1494 1497 1500 1502 1504 1505 1504 1502 1501 1499 1498 1496 1494 1491 1488 1486 1484 1480 1477 1473 1469 1465 1462 1458 1453 1449 1445 1441 1436 1432 1427 1422 1417 1413 1409 1405 1400 1395 1391 1387 1383 1380 1377 1374 1371 1368 1366 1363 1361 1358 1356 1354 1352 1351 1348 1346 1343 1342 1341 1340
1569 1565 1561 1560 1558 1555 1552 1548 1546 1547 1546 1541 1538 1535 1534 1539 1541 1542 1542 1531 1525 1529 1519 1503 1505 1509 1503 1501 1503 1504 1506 1505 1503 1501 1499 1497 1495 1494 1491 1488 1485 1483 1481 1478 1474 1471 1467 1463 1459 1455 1450 1446 1442 1438 1433 1428 1424 1419 1414 1409 1405 1401 1396 1392 1388 1384 1381 1377 1374 1371 1368 1366 1363 1360 1358 1355 1353 1351 1349 1347 1345 1342 1341 1339 1338 1337
1569 1565 1562 1560 1557 1553 1552 1549 1546 1546 1545 1541 1538 1533 1531 1536 1539 1538 1535 1526 1527 1532 1517 1503 1510 1515 1507 1505 1505 1505 1506 1505 1502 1500 1498 1495 1493 1491 1488 1485 1483 1480 1477 1474 1471 1468 1464 1460 1455 1451 1447 1443 1439 1434 1430 1425 1420 1415 1411 1406 1401 1397 1393 1389 1385 1382 1378 1375 1372 1369 1366 1363 1361 1358 1355 1353 1351 1348 1346 1343 1341 1339 1337 1336 1335 1333
1569 1564 1562 1561 1557 1552 1551 1548 1545 1545 1543 1537 1533 1530 1529 1531 1533 1533 1530 1527 1528 1526 1517 1514 1517 1514 1508 1507 1507 1507 1507 1505 1501 1499 1496 1494 1491 1488 1485 1483 1480 1477 1474 1471 1468 1464 1461 1456 1452 1448 1443 1439 1435 1431 1426 1421 1417 1412 1407 1402 1398 1394 1390 1386 1382 1379 1376 1373 1370 1367 1364 1361 1358 1356 1353 1351 1349 1346 1344 1341 1339 1336 1334 1332 1331 1330
1567 1563 1562 1562 1558 1551 1547 1545 1543 1542 1540 1536 1532 1530 1529 1528 1529 1531 1530 1528 1528 1524 1519 1520 1518 1511 1507 1508 1508 1507 1506 1502 1499 1496 1493 1491 1489 1485 1482 1480 1477 1475 1471 1468 1465 1462 1458 1454 1450 1445 1440 1436 1432 1427 1423 1419 1414 1409 1405 1400 1396 1391 1387 1383 1380 1376 1373 1371 1368 1365 1362 1359 1356 1353 1351 1349 1346 1344 1342 1339 1337 1334 1332 1330 1328 1327
1569 1566 1563 1564 1561 1550 1543 1542 1541 1540 1539 1535 1530 1529 1529 1528 1528 1530 1529 1527 1528 1526 1522 1521 1517 1510 1506 1507 1508 1506 1503 1500 1497 1493 1491 1488 1486 1483 1480 1478 1475 1472 1469 1466 1463 1460 1457 1453 1449 1444 1439 1434 1429 1425 1421 1416 1411 1406 1402 1397 1393 1389 1385 1381 1377 1374 1371 1368 1366 1363 1361 1358 1355 1352 1349 1346 1343 1341 1339 1336 1334 1332 1330 1328 1326 1324
1571 1568 1564 1567 1563 1547 1540 1544 1544 1540 1536 1529 1527 1530 1531 1529 1528 1529 1527 1526 1527 1527 1525 1521 1516 1510 1508 1508 1506 1503 1501 1499 1496 1492 1489 1486 1483 1481 1479 1477 1474 1471 1467 1464 1460 1457 1454 1451 1447 1443 1438 1433 1428 1423 1419 1414 1409 1404 1400 1396 1391 1387 1383 1379 1375 1372 1369 1366 1364 1361 1358 1356 1353 1350 1347 1344 1341 1338 1336 1334 1331 1329 1327 1325 1323 1321
1571 1570 1567 1568 1563 1549 1543 1544 1542 1540 1535 1528 1529 1533 1533 1531 1531 1530 1528 1527 1526 1524 1523 1519 1514 1512 1512 1509 1506 1503 1500 1498 1495 1492 1489 1485 1482 1479 1477 1475 1472 1468 1465 1462 1458 1454 1451 1447 1444 1440 1436 1431 1427 1422 1417 1412 1408 1403 1398 1394 1389 1385 1381 1377 1373 1370 1366 1364 1361 1359 1356 1354 1351 1348 1345 1342 1340 1337 1334 1331 1328 1326 1324 1322 1320 1318
1570 1570 1568 1567 1564 1554 1548 1548 1547 1541 1533 1529 1532 1534 1532 1531 1532 1530 1527 1525 1524 1522 1520 1519 1517 1515 1512 1509 1507 1504 1500 1497 1495 1491 1487 1485 1482 1479 1476 1473 1469 1465 1462 1458 1455 1452 1448 1444 1440 1436 1432 1428 1424 1419 1414 1409 1405 1400 1395 1391 1386 1382 1378 1375 1371 1368 1365 1362 1359 1356 1354 1351 1348 1346 1342 1340 1338 1335 1332 1329 1326 1323 1321 1319 1318 1316
1569 1570 1568 1566 1563 1553 1549 1554 1554 1539 1528 1530 1534 1533 1531 1531 1532 1530 1525 1520 1521 1521 1520 1520 1517 1514 1511 1508 1505 1502 1499 1495 1492 1488 1486 1484 1481 1478 1475 1470 1466 1463 1459 1456 1453 1449 1446 1443 1438 1434 1430 1425 1421 1417 1412 1406 1402 1397 1392 1388 1384 1380 1376 1373 1369 1367 1364 1360 1357 1354 1351 1348 1345 1342 1340 1338 1335 1332 1329 1326 1323 1321 1319 1316 1315 1313
1569 1570 1568 1566 1562 1555 1553 1555 1550 1537 1529 1532 1533 1532 1533 1533 1531 1531 1525 1518 1518 1521 1521 1519 1516 1512 1509 1506 1503 1500 1496 1491 1486 1484 1484 1482 1479 1477 1473 1469 1465 1462 1458 1455 1451 1448 1445 1441 1437 1432 1428 1424 1419 1414 1409 1404 1400 1395 1390 1386 1382 1378 1374 1371 1368 1365 1362 1359 1356 1352 1349 1346 1343 1340 1337 1335 1332 1329 1326 1323 1320 1318 1316 1314 1311 1310
1569 1569 1570 1569 1563 1560 1559 1557 1551 1542 1534 1532 1533 1533 1533 1532 1529 1530 1527 1520 1518 1520 1519 1517 1514 1510 1507 1504 1500 1497 1493 1488 1483 1480 1480 1479 1477 1474 1471 1467 1464 1460 1456 1452 1448 1444 1441 1437 1434 1430 1426 1422 1417 1412 1407 1402 1397 1393 1388 1384 1380 1376 1372 1369 1366 1363 1360 1357 1354 1350 1347 1344 1341 1338 1334 1331 1328 1325 1322 1320 1317 1315 1313 1311 1309 1307
1568 1569 1570 1571 1567 1563 1563 1562 1558 1549 1536 1531 1533 1532 1531 1531 1529 1528 1527 1521 1518 1519 1518 1515 1512 1509 1505 1502 1499 1495 1492 1487 1481 1477 1477 1476 1473 1471 1468 1464 1460 1457 1454 1450 1446 1441 1437 1434 1430 1427 1424 1419 1414 1409 1404 1400 1395 1391 1386 1382 1378 1374 1371 1368 1365 1361 1358 1355 1352 1348 1344 1342 1339 1335 1332 1328 1325 1322 1319 1317 1314 1312 1310 1309 1306 1304
1569 1569 1570 1569 1566 1563 1563 1561 1558 1551 1540 1533 1533 1531 1531 1530 1527 1529 1529 1519 1514 1517 1516 1513 1511 1508 1504 1502 1498 1495 1492 1487 1481 1476 1476 1474 1471 1469 1466 1461 1457 1454 1450 1446 1443 1438 1434 1431 1427 1424 1420 1416 1411 1407 1402 1397 1393 1389 1385 1380 1376 1373 1370 1367 1363 1360 1357 1353 1349 1345 1342 1339 1336 1333 1329 1325 1322 1319 1317 1314 1311 1309 1307 1305 1304 1302
1567 1568 1569 1568 1565 1563 1564 1561 1554 1547 1539 1535 1534 1533 1532 1529 1529 1535 1533 1520 1513 1515 1514 1512 1510 1507 1503 1501 1497 1494 1492 1488 1483 1478 1475 1472 1469 1465 1463 1459 1455 1451 1447 1443 1440 1435 1431 1428 1425 1422 1418 1414 1410 1405 1400 1395 1391 1387 1383 1379 1375 1371 1368 1365 1361 1358 1354 1350 1346 1343 1340 1337 1334 1330 1326 1323 1319 1316 1314 1312 1309 1307 1305 1303 1301 1299
1568 1568 1568 1568 1566 1564 1563 1560 1554 1545 1539 1537 1537 1534 1533 1534 1536 1537 1530 1521 1518 1516 1512 1511 1510 1506 1502 1500 1496 1493 1489 1485 1481 1477 1473 1470 1466 1462 1459 1456 1451 1448 1444 1440 1436 1432 1428 1424 1421 1419 1415 1412 1407 1403 1398 1393 1389 1385 1381 1377 1373 1370 1367 1363 1359 1356 1351 1347 1344 1340 1337 1333 1330 1327 1323 1320 1317 1313 1311 1309 1307 1305 1303 1301 1298 1296
1571 1571 1567 1566 1566 1564 1561 1562 1561 1551 1540 1537 1537 1535 1535 1539 1539 1533 1526 1523 1521 1516 1512 1510 1508 1505 1501 1497 1494 1491 1486 1481 1478 1474 1470 1467 1464 1460 1456 1452 1448 1445 1441 1436 1433 1429 1425 1422 1418 1415 1412 1409 1405 1401 1396 1392 1387 1383 1379 1376 1372 1368 1364 1361 1357 1353 1349 1345 1341 1337 1334 1330 1327 1324 1321 1318 1315 1311 1308 1306 1304 1302 1300 1299 1296 1294
1573 1573 1570 1569 1569 1568 1566 1565 1560 1549 1540 1540 1542 1541 1539 1538 1536 1531 1527 1523 1520 1517 1513 1509 1506 1504 1501 1496 1492 1488 1483 1479 1475 1472 1468 1464 1460 1457 1454 1450 1446 1442 1438 1434 1430 1426 1423 1419 1415 1412 1410 1406 1403 1398 1394 1390 1385 1381 1377 1374 1370 1366 1362 1359 1355 1350 1346 1342 1339 1335 1331 1327 1324 1321 1318 1315 1313 1310 1307 1304 1302 1300 1298 1297 1295 1293
1573 1573 1573 1572 1570 1569 1567 1560 1551 1545 1543 1544 1544 1543 1541 1538 1535 1532 1529 1524 1520 1517 1514 1509 1505 1502 1499 1495 1491 1485 1480 1477 1473 1469 1466 1461 1457 1455 1451 1447 1444 1440 1436 1432 1428 1424 1421 1417 1413 1409 1406 1403 1400 1396 1392 1388 1384 1379 1376 1372 1367 1363 1360 1356 1352 1347 1344 1340 1336 1332 1328 1325 1321 1319 1316 1314 1312 1309 1306 1303 1300 1298 1296 1295 1293 1292
1573 1573 1573 1571 1567 1564 1561 1555 1551 1549 1546 1544 1543 1543 1541 1537 1534 1531 1528 1523 1520 1516 1513 1509 1505 1501 1497 1494 1489 1484 1479 1475 1471 1467 1464 1460 1455 1452 1449 1445 1441 1438 1434 1430 1426 1422 1419 1414 1411 1407 1403 1400 1397 1394 1390 1386 1383 1378 1374 1370 1365 1362 1358 1354 1349 1345 1342 1338 1334 1330 1326 1322 1319 1316 1314 1313 1310 1308 1305 1302 1300 1297 1295 1293 1292 1291
1573 1573 1572 1570 1568 1564 1558 1552 1552 1551 1548 1545 1544 1541 1538 1536 1533 1530 1527 1523 1519 1515 1512 1509 1504 1500 1496 1492 1488 1483 1478 1474 1470 1465 1461 1458 1454 1449 1446 1442 1438 1435 1432 1428 1425 1421 1416 1412 1408 1405 1400 1397 1394 1391 1388 1384 1381 1377 1373 1368 1364 1361 1357 1352 1347 1343 1340 1335 1331 1327 1324 1320 1317 1314 1312 1310 1308 1306 1304 1302 1299 1297 1294 1293 1291 1290
1575 1574 1572 1570 1569 1566 1558 1552 1551 1549 1547 1546 1543 1539 1536 1534 1531 1528 1526 1522 1518 1514 1510 1507 1504 1499 1494 1490 1487 1482 1477 1473 1469 1464 1460 1456 1452 1447 1444 1440 1436 1433 1430 1427 1423 1419 1415 1410 1407 1403 1399 1395 1392 1388 1385 1382 1378 1375 1370 1366 1363 1359 1354 1350 1346 1342 1338 1333 1329 1325 1322 1319 1317 1314 1311 1309 1307 1304 1302 1300 1298 1296 1295 1293 1291 1289
1576 1574 1572 1571 1568 1563 1557 1553 1551 1546 1541 1541 1542 1539 1537 1534 1530 1527 1525 1521 1517 1513 1508 1505 1502 1498 1494 1490 1486 1481 1476 1472 1468 1464 1459 1454 1449 1445 1442 1438 1434 1431 1428 1425 1421 1418 1413 1409 1405 1401 1398 1394 1390 1386 1382 1379 1376 1372 1368 1365 1361 1357 1352 1348 1345 1341 1336 1332 1328 1324 1321 1319 1317 1314 1310 1307 1305 1303 1302 1300 1299 1296 1294 1293 1293 1292
1576 1573 1572 1572 1570 1565 1559 1556 1555 1551 1544 1540 1540 1539 1536 1534 1530 1526 1523 1519 1516 1512 1508 1503 1499 1496 1494 1490 1485 1481 1476 1471 1467 1463 1458 1453 1448 1445 1441 1437 1433 1429 1426 1423 1419 1415 1412 1408 1404 1400 1396 1391 1388 1384 1380 1377 1373 1370 1367 1363 1359 1355 1351 1347 1343 1339 1335 1331 1327 1324 1321 1318 1315 1313 1310 1307 1304 1301 1299 1298 1298 1297 1295 1293 1292 1292
1577 1574 1573 1573 1571 1567 1562 1559 1558 1556 1550 1544 1541 1539 1536 1533 1530 1526 1522 1519 1515 1512 1508 1503 1498 1494 1491 1488 1485 1481 1476 1470 1466 1461 1456 1451 1448 1444 1440 1436 1432 1428 1424 1421 1417 1413 1409 1406 1401 1397 1393 1389 1386 1382 1379 1375 1372 1369 1366 1362 1357 1353 1350 1346 1341 1337 1333 1330 1327 1324 1321 1317 1314 1312 1310 1308 1305 1302 1298 1295 1294 1295 1296 1295 1291 1290